CW9206 Weather Reports


Display with metric or nautical units.
time (UTC)temp
F
wind
direction
speed
MPH
gust
MPH
rain 1hr
in
rain 24hr
in
rain mn
in
humidity
%
barometer
mb
20260510223245 82 326 1.0 12.0 0.00 0.00 0.00 42 1011.4
20260510222745 82 299 5.0 12.0 0.00 0.00 0.00 42 1011.4
20260510222244 81 281 2.0 13.0 0.00 0.00 0.00 43 1011.3
20260510221745 81 330 2.0 13.0 0.00 0.00 0.00 42 1011.4
20260510221245 82 306 3.0 12.0 0.00 0.00 0.00 42 1011.5
20260510220745 82 183 1.0 10.0 0.00 0.00 0.00 42 1011.5
20260510220245 82 292 10.0 10.0 0.00 0.00 0.00 42 1011.5
20260510215745 82 338 0.0 12.0 0.00 0.00 0.00 42 1011.6
20260510215244 82 229 3.0 12.0 0.00 0.00 0.00 42 1011.5
20260510214745 83 244 0.0 12.0 0.00 0.00 0.00 41 1011.6
20260510213245 83 290 3.0 12.0 0.00 0.00 0.00 41 1011.6
20260510212745 83 314 10.0 12.0 0.00 0.00 0.00 40 1011.6
20260510212245 83 325 0.0 11.0 0.00 0.00 0.00 40 1011.6
20260510211745 83 284 0.0 11.0 0.00 0.00 0.00 41 1011.6
20260510211244 82 306 1.0 10.0 0.00 0.00 0.00 41 1011.7
20260510210745 82 306 1.0 10.0 0.00 0.00 0.00 41 1011.7
20260510205745 82 300 5.0 11.0 0.00 0.00 0.00 40 1011.8
20260510205244 82 264 2.0 11.0 0.00 0.00 0.00 40 1011.9
20260510204244 82 267 4.0 11.0 0.00 0.00 0.00 40 1012.0
20260510203245 82 268 2.0 7.0 0.00 0.00 0.00 39 1012.0
20260510202744 82 298 3.0 7.0 0.00 0.00 0.00 39 1011.9
20260510202245 81 304 2.0 9.0 0.00 0.00 0.00 39 1011.9
20260510201746 81 232 4.0 9.0 0.00 0.00 0.00 39 1012.0
20260510201245 82 263 7.0 7.0 0.00 0.00 0.00 38 1012.1
20260510195745 81 217 3.0 7.0 0.00 0.00 0.00 38 1012.3
20260510195244 81 258 0.0 9.0 0.00 0.00 0.00 37 1012.4
20260510194744 81 311 4.0 9.0 0.00 0.00 0.00 37 1012.4
20260510193744 80 273 3.0 5.0 0.00 0.00 0.00 37 1012.4
20260510193244 79 277 2.0 6.0 0.00 0.00 0.00 36 1012.4
20260510192746 79 277 0.0 8.0 0.00 0.00 0.00 36 1012.4
20260510192244 79 221 0.0 8.0 0.00 0.00 0.00 36 1012.6
20260510191245 78 304 2.0 6.0 0.00 0.00 0.00 35 1012.6
20260510190245 78 302 3.0 9.0 0.00 0.00 0.00 33 1012.8
20260510185744 77 304 1.0 5.0 0.00 0.00 0.00 33 1012.9
20260510185245 76 319 0.0 5.0 0.00 0.00 0.00 33 1012.9
20260510184745 76 254 0.0 5.0 0.00 0.00 0.00 33 1012.9
20260510184245 75 256 1.0 5.0 0.00 0.00 0.00 32 1012.9
20260510183745 75 240 0.0 5.0 0.00 0.00 0.00 32 1012.9
20260510183245 75 217 3.0 6.0 0.00 0.00 0.00 31 1013.0
20260510182244 73 310 0.0 9.0 0.00 0.00 0.00 30 1012.9
20260510181745 73 296 0.0 9.0 0.00 0.00 0.00 29 1012.9
20260510180244 71 309 3.0 7.0 0.00 0.00 0.00 27 1012.9
20260510175744 69 309 0.0 9.0 0.00 0.00 0.00 27 1012.9
20260510175244 69 318 7.0 9.0 0.00 0.00 0.00 26 1013.0
20260510174744 68 287 0.0 7.0 0.00 0.00 0.00 25 1013.0
20260510174245 67 309 6.0 6.0 0.00 0.00 0.00 24 1012.9
20260510173744 66 302 0.0 7.0 0.00 0.00 0.00 23 1013.0
20260510172244 64 310 0.0 5.0 0.00 0.00 0.00 18 1012.9
20260510171744 63 311 0.0 3.0 0.00 0.00 0.00 15 1012.9
20260510170744 61 311 0.0 6.0 0.00 0.00 0.00 12 1012.8
20260510165744 59 248 0.0 6.0 0.00 0.00 0.00 11 1012.8
20260510165244 59 249 0.0 6.0 0.00 0.00 0.00 12 1012.8
20260510164244 57 242 0.0 2.0 0.00 0.00 0.00 13 1013.0
20260510163744 56 242 0.0 2.0 0.00 0.00 0.00 13 1012.8
20260510162744 55 242 0.0 3.0 0.00 0.00 0.00 14 1012.9
20260510162244 55 242 0.0 3.0 0.00 0.00 0.00 14 1013.0
20260510161745 55 242 0.0 3.0 0.00 0.00 0.00 14 1012.9
20260510160744 55 242 0.0 2.0 0.00 0.00 0.00 14 1012.9
20260510160244 55 242 0.0 2.0 0.00 0.00 0.00 14 1012.9
20260510155744 54 242 0.0 2.0 0.00 0.00 0.00 15 1012.9
20260510155244 54 246 0.0 2.0 0.00 0.00 0.00 15 1012.9
20260510154745 54 299 0.0 0.0 0.00 0.00 0.00 15 1012.9
20260510154244 54 298 0.0 0.0 0.00 0.00 0.00 15 1012.9
20260510152744 54 298 0.0 0.0 0.00 0.00 0.00 15 1012.8
20260510152244 54 298 0.0 0.0 0.00 0.00 0.00 15 1012.8
20260510151745 54 298 0.0 0.0 0.00 0.00 0.00 15 1012.8
20260510150244 53 298 0.0 0.0 0.00 0.00 0.00 15 1012.8
20260510145745 53 15 0.0 0.0 0.00 0.00 0.00 15 1012.7
20260510145244 53 15 0.0 0.0 0.00 0.00 0.00 15 1012.8
20260510144744 53 326 0.0 0.0 0.00 0.00 0.00 15 1012.8
20260510143244 53 326 0.0 0.0 0.00 0.00 0.00 15 1012.7
20260510142744 53 326 0.0 0.0 0.00 0.00 0.00 15 1012.7
20260510142244 53 326 0.0 0.0 0.00 0.00 0.00 15 1012.7
20260510141244 53 333 0.0 0.0 0.00 0.00 0.00 15 1012.7
20260510140244 53 331 0.0 0.0 0.00 0.00 0.00 15 1012.6
20260510135744 52 331 0.0 0.0 0.00 0.00 0.00 15 1012.7
20260510134744 52 332 0.0 0.0 0.00 0.00 0.00 15 1012.6
20260510134244 52 331 0.0 0.0 0.00 0.00 0.00 15 1012.5
20260510133744 52 332 0.0 0.0 0.00 0.00 0.00 14 1012.5
20260510133244 52 332 0.0 0.0 0.00 0.00 0.00 14 1012.4
20260510132744 52 332 0.0 0.0 0.00 0.00 0.00 14 1012.3
20260510132244 52 331 0.0 0.0 0.00 0.00 0.00 14 1012.2
20260510131244 52 332 0.0 0.0 0.00 0.00 0.00 14 1012.2
20260510130745 52 331 0.0 0.0 0.00 0.00 0.00 14 1012.1
20260510130244 52 332 0.0 0.0 0.00 0.00 0.00 14 1012.1
20260510125744 52 332 0.0 0.0 0.00 0.00 0.00 14 1012.2
20260510125244 53 332 0.0 0.0 0.00 0.00 0.00 14 1012.4
20260510124744 53 331 0.0 0.0 0.00 0.00 0.00 14 1012.4
20260510124244 53 331 0.0 0.0 0.00 0.00 0.00 14 1012.3
20260510123744 53 332 0.0 0.0 0.00 0.00 0.00 14 1012.3
20260510123244 53 332 0.0 0.0 0.00 0.00 0.00 14 1012.3
20260510122744 53 332 0.0 0.0 0.00 0.00 0.00 14 1012.2
20260510122243 53 332 0.0 0.0 0.00 0.00 0.00 14 1012.2
20260510121744 53 332 0.0 0.0 0.00 0.00 0.00 14 1012.2
20260510121244 53 331 0.0 0.0 0.00 0.00 0.00 13 1012.2
20260510120744 53 331 0.0 0.0 0.00 0.00 0.00 13 1012.2
20260510115743 54 332 0.0 0.0 0.00 0.00 0.00 13 1012.3
20260510115244 54 331 0.0 0.0 0.00 0.00 0.00 13 1012.3
20260510114744 53 332 0.0 0.0 0.00 0.00 0.00 13 1012.2
20260510114244 53 332 0.0 0.0 0.00 0.00 0.00 13 1012.2
20260510113744 53 332 0.0 0.0 0.00 0.00 0.00 13 1012.2
20260510113244 54 331 0.0 0.0 0.00 0.00 0.00 13 1012.2
20260510112743 54 332 0.0 0.0 0.00 0.00 0.00 13 1012.2
20260510111744 54 332 0.0 0.0 0.00 0.00 0.00 13 1012.3
20260510111243 54 331 0.0 0.0 0.00 0.00 0.00 13 1012.3
20260510110744 54 331 0.0 0.0 0.00 0.00 0.00 13 1012.3
20260510110243 54 332 0.0 0.0 0.00 0.00 0.00 13 1012.3
20260510105743 54 331 0.0 0.0 0.00 0.00 0.00 13 1012.3
20260510105243 54 332 0.0 0.0 0.00 0.00 0.00 13 1012.3
20260510104743 54 332 0.0 0.0 0.00 0.00 0.00 13 1012.3
20260510104244 54 332 0.0 0.0 0.00 0.00 0.00 13 1012.3
20260510103243 54 331 0.0 0.0 0.00 0.00 0.00 13 1012.1
20260510102743 54 332 0.0 0.0 0.00 0.00 0.00 13 1012.1
20260510101743 54 332 0.0 0.0 0.00 0.00 0.00 13 1012.2
20260510101244 54 332 0.0 0.0 0.00 0.00 0.00 13 1012.2
20260510100744 54 332 0.0 0.0 0.00 0.00 0.00 13 1012.2
20260510100244 54 332 0.0 0.0 0.00 0.00 0.00 13 1012.2
20260510095243 55 332 0.0 0.0 0.00 0.00 0.00 13 1012.5
20260510094744 55 332 0.0 0.0 0.00 0.00 0.00 13 1012.5
20260510094243 55 331 0.0 0.0 0.00 0.00 0.00 13 1012.5
20260510093744 55 332 0.0 0.0 0.00 0.00 0.00 13 1012.6
20260510093244 55 332 0.0 0.0 0.00 0.00 0.00 13 1012.6
20260510092743 55 332 0.0 0.0 0.00 0.00 0.00 13 1012.6
20260510092244 55 331 0.0 0.0 0.00 0.00 0.00 13 1012.6
20260510091743 55 331 0.0 0.0 0.00 0.00 0.00 13 1012.7
20260510091244 55 332 0.0 0.0 0.00 0.00 0.00 13 1012.7
20260510090743 55 332 0.0 0.0 0.00 0.00 0.00 13 1012.7
20260510090244 55 332 0.0 0.0 0.00 0.00 0.00 13 1012.7
20260510085743 55 332 0.0 0.0 0.00 0.00 0.00 13 1012.7
20260510085244 55 332 0.0 0.0 0.00 0.00 0.00 13 1012.6
20260510084743 55 331 0.0 0.0 0.00 0.00 0.00 13 1012.7
20260510084244 55 331 0.0 0.0 0.00 0.00 0.00 13 1012.8
20260510082744 55 331 0.0 0.0 0.00 0.00 0.00 13 1012.8
20260510082243 55 332 0.0 0.0 0.00 0.00 0.00 13 1012.8
20260510081243 55 332 0.0 0.0 0.00 0.00 0.00 13 1012.9
20260510080744 55 331 0.0 0.0 0.00 0.00 0.00 13 1012.9
20260510075743 55 332 0.0 0.0 0.00 0.00 0.00 13 1013.0
20260510074743 55 331 0.0 0.0 0.00 0.00 0.00 13 1013.0
20260510074243 55 332 0.0 0.0 0.00 0.00 0.00 13 1013.1
20260510073743 55 332 0.0 0.0 0.00 0.00 0.00 13 1013.1
20260510072743 55 332 0.0 0.0 0.00 0.00 0.00 13 1013.2
20260510072244 55 332 0.0 0.0 0.00 0.00 0.00 13 1013.1
20260510071243 55 331 0.0 0.0 0.00 0.00 0.00 13 1013.0
20260510070244 55 332 0.0 0.0 0.00 0.00 0.00 13 1013.2
20260510065743 55 332 0.0 1.0 0.00 0.00 0.00 13 1013.0
20260510065243 55 331 0.0 1.0 0.00 0.00 0.00 12 1013.0
20260510064743 55 332 0.0 0.0 0.00 0.00 0.00 12 1013.0
20260510064244 55 332 0.0 2.0 0.00 0.00 0.00 12 1013.0
20260510063743 55 332 0.0 3.0 0.00 0.00 0.00 12 1013.0
20260510063244 55 331 0.0 3.0 0.00 0.00 0.00 12 1012.9
20260510062743 55 332 2.0 2.0 0.00 0.00 0.00 12 1012.9
20260510061744 55 332 0.0 0.0 0.00 0.00 0.00 12 1013.0
20260510061243 55 331 0.0 0.0 0.00 0.00 0.00 12 1012.9
20260510060243 55 332 0.0 0.0 0.00 0.00 0.00 12 1012.9
20260510055744 55 331 0.0 0.0 0.00 0.00 0.00 12 1012.9
20260510055243 55 331 0.0 0.0 0.00 0.00 0.00 12 1012.9
20260510054743 55 332 0.0 0.0 0.00 0.00 0.00 12 1012.9
20260510054243 55 332 0.0 0.0 0.00 0.00 0.00 12 1012.9
20260510053743 55 331 0.0 0.0 0.00 0.00 0.00 12 1012.9
20260510053243 55 332 0.0 0.0 0.00 0.00 0.00 13 1012.9
20260510052744 55 332 0.0 0.0 0.00 0.00 0.00 13 1012.9
20260510052243 55 331 0.0 0.0 0.00 0.00 0.00 13 1013.0
20260510051743 55 331 0.0 0.0 0.00 0.00 0.00 13 1012.9
20260510051243 55 332 0.0 0.0 0.00 0.00 0.00 13 1012.8
20260510050743 55 332 0.0 0.0 0.00 0.00 0.00 13 1012.8
20260510050243 55 332 0.0 0.0 0.00 0.00 0.00 13 1013.0
20260510045743 55 332 0.0 0.0 0.00 0.00 0.00 13 1012.7
20260510045243 55 332 0.0 0.0 0.00 0.00 0.00 13 1012.6
20260510044243 55 331 0.0 0.0 0.00 0.00 0.00 13 1012.5
20260510043243 55 332 0.0 3.0 0.00 0.00 0.00 13 1012.5
20260510042243 55 331 0.0 4.0 0.00 0.00 0.00 14 1012.5
20260510041243 56 332 2.0 6.0 0.00 0.00 0.00 14 1012.6
20260510040743 56 331 0.0 0.0 0.00 0.00 0.00 14 1012.4
20260510040243 56 332 0.0 3.0 0.00 0.00 0.00 14 1012.4
20260510035743 56 332 0.0 5.0 0.00 0.00 0.00 15 1012.1
20260510035243 56 332 0.0 6.0 0.00 0.00 0.00 15 1012.0
20260510034743 56 331 0.0 6.0 0.00 0.00 0.00 15 1012.0
20260510033743 56 333 5.0 5.0 0.00 0.00 0.00 17 1011.9
20260510033243 56 333 0.0 6.0 0.00 0.00 0.00 17 1011.8
20260510032743 56 334 0.0 6.0 0.00 0.00 0.00 18 1011.7
20260510031743 57 267 2.0 7.0 0.00 0.00 0.00 20 1011.5
20260510031243 57 304 1.0 5.0 0.00 0.00 0.00 22 1011.5
20260510030743 57 304 0.0 4.0 0.00 0.00 0.00 22 1011.6
20260510030243 57 305 0.0 4.0 0.00 0.00 0.00 24 1011.5
20260510025743 57 294 0.0 7.0 0.00 0.00 0.00 24 1011.4
20260510025243 58 292 1.0 7.0 0.00 0.00 0.00 25 1011.3
20260510024743 58 269 0.0 6.0 0.00 0.00 0.00 26 1011.2
20260510024244 58 261 1.0 7.0 0.00 0.00 0.00 27 1011.3
20260510023743 59 319 2.0 7.0 0.00 0.00 0.00 28 1011.2
20260510023243 59 287 3.0 5.0 0.00 0.00 0.00 29 1011.2
20260510022743 59 236 0.0 5.0 0.00 0.00 0.00 30 1011.2
20260510022243 59 288 2.0 7.0 0.00 0.00 0.00 31 1011.2
20260510021743 60 288 0.0 9.0 0.00 0.00 0.00 33 1011.1
20260510021243 60 257 0.0 9.0 0.00 0.00 0.00 35 1011.1
20260510020744 61 255 3.0 12.0 0.00 0.00 0.00 37 1011.0
20260510015743 62 248 5.0 11.0 0.00 0.00 0.00 41 1011.0
20260510015243 63 281 5.0 10.0 0.00 0.00 0.00 43 1011.1
20260510013243 66 306 3.0 9.0 0.00 0.00 0.00 46 1010.9
20260510012743 67 281 6.0 12.0 0.00 0.00 0.00 47 1011.0
20260510012243 67 308 1.0 12.0 0.00 0.00 0.00 47 1011.0
20260510011744 68 281 12.0 12.0 0.00 0.00 0.00 47 1011.1
20260510011243 68 221 2.0 11.0 0.00 0.00 0.00 47 1011.0
20260510010244 69 250 2.0 11.0 0.00 0.00 0.00 47 1011.1
20260510005743 69 330 1.0 11.0 0.00 0.00 0.00 47 1011.1
20260510005243 70 242 2.0 12.0 0.00 0.00 0.00 47 1011.1
20260510004742 70 306 7.0 12.0 0.00 0.00 0.00 47 1011.1
20260510003743 71 261 0.0 10.0 0.00 0.00 0.00 47 1011.0
20260510003243 72 291 5.0 12.0 0.00 0.00 0.00 47 1011.1
20260510002743 72 285 2.0 12.0 0.00 0.00 0.00 46 1011.0
20260510002243 73 284 3.0 10.0 0.00 0.00 0.00 46 1011.0
20260510001244 73 304 0.0 10.0 0.00 0.00 0.00 46 1010.9
20260510000243 73 314 2.0 11.0 0.00 0.00 0.00 45 1010.9
20260509235743 74 286 4.0 9.0 0.00 0.00 0.00 45 1011.0
20260509235243 74 312 3.0 9.0 0.00 0.00 0.00 45 1011.0
20260509234743 74 268 1.0 10.0 0.00 0.00 0.00 45 1011.1
20260509233744 74 309 1.0 11.0 0.00 0.00 0.00 45 1011.1
20260509233243 74 333 4.0 10.0 0.00 0.00 0.00 45 1011.2
20260509232743 75 260 0.0 13.0 0.00 0.00 0.00 45 1011.2
20260509232242 75 267 5.0 13.0 0.00 0.00 0.00 44 1011.2
20260509231743 75 327 11.0 11.0 0.00 0.00 0.00 44 1011.2
20260509231242 75 286 2.0 11.0 0.00 0.00 0.00 44 1011.1
20260509230742 75 267 0.0 10.0 0.00 0.00 0.00 44 1011.2
20260509230242 76 235 0.0 11.0 0.00 0.00 0.00 44 1011.2
20260509225742 76 277 1.0 13.0 0.00 0.00 0.00 44 1011.2
20260509225243 76 279 2.0 13.0 0.00 0.00 0.00 44 1011.2
20260509224743 77 346 2.0 11.0 0.00 0.00 0.00 43 1011.2
20260509224243 77 320 0.0 11.0 0.00 0.00 0.00 43 1011.2